Location: Tel Aviv
(32.0670°N, 34.7670°E)
Time: 01:44:24
(UTC+02:00)

Envisat - Pass Details

Date: 07 December 2021
Orbit: 764 x 766 km, 98.2° (Epoch: 26 January)

Event Time Altitude Azimuth Distance (km) Brightness Sun altitude
Rises 05:43:13 0° 352° (N) 3,235 6.0 -9.6°
Reaches altitude 10° 05:46:09 10° 335° (NNW) 2,305 5.1 -9.0°
Maximum altitude 05:49:34 18° 292° (WNW) 1,786 4.3 -8.4°
Drops below altitude 10° 05:52:58 10° 250° (WSW) 2,296 5.0 -7.7°
Sets 05:55:54 0° 232° (SW) 3,218 5.9 -7.1°
